[[{"header":{"parameterUnit":"m.s-1","parameterCategory":1,"la1":30.2991,"la2":30.254,"lo1":-89.0895,"lo2":-89.0444,"dy":0.0017,"dx":0.0017,"nx":28,"ny":28,"refTime":"2024-02-12T03:00:00:Z","depth":0,"parameterNumber":2,"parameterNumberName":"U-component_of_WINDS"},"data":[0,0,0,0,0,0,0,0,0,0,0,0,0,0,0,0,0,0,0,0,0,0,0,0,0,0,0,0,0,0,0,0,0,0,0,0,0,0,0,0,0,0,0,0,0,0,0,0,0,0,0,0,0,0,0,0,0,0,0.6242,0.6242,0,0.6248,0.6248,0.6248,0.6238,0.6237,0.6237,0.6237,0.6243,0.6244,0.6244,0,0,0,0,0,0,0,0,0,0,0,0,0,0.6223,0.6223,0.6242,0.6242,0.6242,0.6248,0.6248,0.6248,0.6238,0.6237,0.6237,0.6237,0.6243,0.6244,0.6244,0,0,0,0,0,0,0,0,0,0,0,0,0,0.623,0.6224,0.6242,0.6238,0.6237,0.6248,0.6248,0.6248,0.6238,0.6237,0.6237,0.6236,0.6243,0.6244,0.6244,0.6259,0,0,0.6246,0.6247,0,0,0,0,0,0,0,0,0.623,0.6231,0.6238,0.6238,0.6238,0.6241,0.6243,0.6252,0.6238,0.6238,0.6237,0.6236,0.6243,0.6244,0.6246,0.6259,0.626,0.6247,0.6247,0.6247,0.6247,0,0,0,0,0,0,0,0.6229,0.6231,0.6244,0.6238,0.6238,0.6236,0.6236,0.6245,0.6243,0.6238,0.6237,0.6238,0.6243,0.6245,0.6246,0.626,0.6247,0.6247,0.6248,0.6248,0.6287,0.6287,0,0,0,0,0,0,0.6229,0.623,0.6244,0.6244,0.6232,0.6237,0.6237,0.6241,0.6243,0.6243,0.6238,0.6237,0.6244,0.6245,0.6246,0.6264,0.6247,0.6248,0.6248,0.6286,0.6287,0.6288,0,0,0,0,0,0,0.6229,0.6231,0.6244,0.6237,0.6239,0.6238,0.6242,0.6241,0.6244,0.6243,0.6243,0.6241,0.6244,0.6245,0.6256,0.6264,0.6248,0.6249,0.6285,0.6286,0.6287,0.63,0,0,0,0,0,0,0.6228,0.623,0.6236,0.6237,0.6239,0.6253,0.6242,0.6242,0.6245,0.6244,0.6246,0.6246,0.6244,0.6255,0.6257,0.6265,0.625,0.6285,0.6286,0.6287,0.6299,0.6302,0.6304,0,0,0,0,0,0.6228,0.6239,0.6236,0.6238,0.6245,0.6254,0.6255,0.6252,0.6246,0.6251,0.6251,0.6246,0.6263,0.6256,0.6258,0.6267,0.6284,0.6286,0.6287,0.6298,0.6301,0.6304,0,0,0,0,0,0,0.6238,0.6239,0.6236,0.6248,0.6251,0.6252,0.6259,0.6255,0.626,0.6258,0.6255,0.6255,0.6267,0.6268,0.626,0.6282,0.6273,0.6275,0.6281,0.6284,0.6286,0.6285,0.625,0,0,0,0,0,0.6242,0.6248,0.6249,0.6259,0.6261,0.626,0.6263,0.6261,0.6264,0.6265,0.6266,0.6269,0.6275,0.628,0.6285,0.63,0.63,0.6307,0.6309,0.6311,0.6312,0.6321,0.6324,0.6292,0.6292,0.6292,0,0,0.6249,0.6251,0.6255,0.6261,0.6263,0.6271,0.6261,0.6268,0.6274,0.6266,0.6277,0.6278,0.6281,0.6294,0.63,0.6295,0.6321,0.6312,0.6314,0.6314,0.6323,0.6326,0.6328,0.6293,0.6293,0.6293,0,0,0.6267,0.6268,0.6278,0.628,0.6283,0.6283,0.6285,0.6287,0.6288,0.6298,0.6293,0.63,0.631,0.6313,0.6316,0.6337,0.6332,0.6339,0.635,0.6359,0.6362,0.6364,0.6372,0.6375,0.634,0.634,0.634,0,0.6276,0.6286,0.6283,0.6291,0.6295,0.6289,0.6298,0.6301,0.6306,0.6309,0.6304,0.6318,0.632,0.6334,0.6339,0.6342,0.6345,0.6338,0.6361,0.6364,0.6366,0.6373,0.6376,0.6341,0.6341,0.6341,0.6341,0,0.6297,0.6305,0.6312,0.6317,0.6322,0.6331,0.633,0.6334,0.6332,0.6332,0.6344,0.6346,0.6353,0.6356,0.6353,0.637,0.6367,0.6362,0.6353,0.637,0.6377,0.6379,0.6342,0.6342,0.6342,0.6342,0,0,0.6321,0.6325,0.6328,0.6331,0.6335,0.634,0.635,0.6357,0.6361,0.6365,0.6373,0.6383,0.6379,0.6382,0.638,0.6388,0.6405,0.6382,0.6382,0.6386,0.6425,0.6429,0.6432,0.6402,0.6403,0.6403,0.6424,0,0.6338,0.6354,0.6352,0.6368,0.6375,0.637,0.6378,0.6382,0.6383,0.6389,0.639,0.6398,0.6391,0.6393,0.64,0.6401,0.6413,0.64,0.641,0.6411,0.641,0.6436,0.644,0.646,0.6427,0.6428,0.6428,0,0.6361,0.6366,0.6383,0.6387,0.639,0.6397,0.6404,0.641,0.6414,0.6415,0.6419,0.6416,0.6427,0.6417,0.6432,0.6423,0.6428,0.6429,0.643,0.6431,0.642,0.6438,0.6466,0.6469,0.6432,0.6432,0.6431,0,0.6377,0.6388,0.64,0.6402,0.6407,0.6413,0.6415,0.6419,0.6424,0.643,0.6433,0.644,0.6444,0.645,0.6449,0.6442,0.6464,0.6455,0.6465,0.6465,0.647,0.647,0.65,0.6472,0.6472,0.6472,0.6472,0,0.6397,0.6407,0.6407,0.6414,0.6426,0.6424,0.6436,0.6438,0.6442,0.645,0.6446,0.6453,0.6452,0.646,0.646,0.6472,0.6474,0.6475,0.6475,0.6475,0.6475,0.6478,0.6477,0.6473,0.6473,0.6473,0.6473,0,0.6417,0.6417,0.6429,0.6433,0.6434,0.6443,0.6447,0.6454,0.6455,0.6465,0.6467,0.6468,0.6478,0.6478,0.6488,0.6488,0.6504,0.6502,0.6502,0.6502,0.6512,0.6512,0.6546,0.655,0.652,0.652,0.652,0,0.643,0.6438,0.6443,0.6448,0.645,0.6458,0.6463,0.6462,0.6468,0.6474,0.6481,0.649,0.6497,0.6512,0.6514,0.6522,0.6521,0.6532,0.6522,0.6523,0.6522,0.6521,0.6523,0.6534,0.6534,0.6535,0.6535,0,0.6453,0.6453,0.646,0.6467,0.6473,0.6479,0.6485,0.6489,0.6489,0.6495,0.6505,0.651,0.6521,0.6531,0.6539,0.6542,0.6539,0.6538,0.6541,0.6542,0.6542,0.6543,0.6508,0.6537,0.6537,0.6537,0.6537,0.6537,0.647,0.6477,0.6482,0.649,0.6494,0.65,0.6507,0.6509,0.6517,0.6526,0.6525,0.6536,0.6542,0.6553,0.6556,0.6565,0.6561,0.6565,0.6567,0.6568,0.6569,0.6541,0.6567,0.6567,0.6567,0.6566,0.6566,0,0.6493,0.6496,0.6504,0.6512,0.6519,0.6516,0.6522,0.6528,0.6538,0.6543,0.655,0.6562,0.6571,0.6575,0.6584,0.659,0.6589,0.6593,0.6592,0.6593,0.6572,0.6568,0.6594,0.6594,0.6594,0.6594,0.6594,0.6594,0.6506,0.6518,0.6519,0.6534,0.6537,0.6548,0.6552,0.6557,0.6562,0.6575,0.6583,0.6585,0.659,0.66,0.6609,0.6609,0.6613,0.6618,0.6618,0.6598,0.6595,0.6592,0.6589,0.6618,0.6618,0.6639,0.6639,0.6639]},{"header":{"parameterUnit":"m.s-1","parameterCategory":1,"la1":30.2991,"la2":30.254,"lo1":-89.0895,"lo2":-89.0444,"dy":0.0017,"dx":0.0017,"nx":28,"ny":28,"refTime":"2024-02-12T03:00:00:Z","depth":0,"parameterNumber":3,"parameterNumberName":"V-component_of_WINDS"},"data":[0,0,0,0,0,0,0,0,0,0,0,0,0,0,0,0,0,0,0,0,0,0,0,0,0,0,0,0,0,0,0,0,0,0,0,0,0,0,0,0,0,0,0,0,0,0,0,0,0,0,0,0,0,0,0,0,0,0,-3.6092,-3.6094,0,-3.6291,-3.6293,-3.6296,-3.6334,-3.6333,-3.6331,-3.633,-3.6533,-3.6539,-3.6546,0,0,0,0,0,0,0,0,0,0,0,0,0,-3.5744,-3.575,-3.6091,-3.6094,-3.6096,-3.6291,-3.6293,-3.6296,-3.6335,-3.6333,-3.6331,-3.6329,-3.653,-3.6538,-3.6547,0,0,0,0,0,0,0,0,0,0,0,0,0,-3.5914,-3.5752,-3.6091,-3.6139,-3.6145,-3.629,-3.6294,-3.6297,-3.6335,-3.6333,-3.633,-3.6328,-3.6528,-3.6538,-3.6548,-3.6658,0,0,-3.6579,-3.6584,0,0,0,0,0,0,0,0,-3.5905,-3.5927,-3.613,-3.6136,-3.6143,-3.6286,-3.6245,-3.6418,-3.6336,-3.6263,-3.633,-3.6327,-3.6452,-3.6468,-3.6511,-3.6667,-3.6676,-3.658,-3.6586,-3.6591,-3.6594,0,0,0,0,0,0,0,-3.5893,-3.5919,-3.617,-3.6132,-3.6141,-3.6151,-3.6172,-3.6278,-3.6368,-3.6269,-3.6273,-3.6296,-3.6455,-3.6501,-3.6516,-3.6679,-3.658,-3.6589,-3.6595,-3.6599,-3.6937,-3.694,0,0,0,0,0,0,-3.5872,-3.5908,-3.6164,-3.6176,-3.6016,-3.6159,-3.6183,-3.6242,-3.6367,-3.6384,-3.6297,-3.6297,-3.6485,-3.6504,-3.6523,-3.6661,-3.6591,-3.66,-3.6606,-3.6935,-3.6938,-3.6941,0,0,0,0,0,0,-3.5865,-3.5895,-3.6156,-3.6044,-3.6078,-3.6167,-3.6234,-3.6247,-3.6293,-3.6389,-3.6405,-3.6327,-3.6483,-3.6509,-3.6625,-3.6669,-3.6605,-3.6614,-3.6931,-3.6936,-3.694,-3.6937,0,0,0,0,0,0,-3.5855,-3.5892,-3.5935,-3.6044,-3.6083,-3.6254,-3.6236,-3.6253,-3.6311,-3.6312,-3.6421,-3.6437,-3.6484,-3.6609,-3.6635,-3.6682,-3.6622,-3.6928,-3.6933,-3.6938,-3.6934,-3.6941,-3.6947,0,0,0,0,0,-3.5842,-3.5925,-3.5937,-3.5967,-3.6139,-3.6256,-3.6279,-3.6331,-3.6314,-3.6358,-3.642,-3.6433,-3.666,-3.6621,-3.665,-3.67,-3.6925,-3.6932,-3.6938,-3.6931,-3.6939,-3.6947,0,0,0,0,0,0,-3.5818,-3.5941,-3.5954,-3.6075,-3.6155,-3.6263,-3.6319,-3.6339,-3.6425,-3.6422,-3.6483,-3.6508,-3.662,-3.6672,-3.6626,-3.6814,-3.6791,-3.6804,-3.6776,-3.6785,-3.6792,-3.6776,-3.6631,0,0,0,0,0,-3.5827,-3.5912,-3.6015,-3.6112,-3.6152,-3.6229,-3.6282,-3.6316,-3.6401,-3.6434,-3.6504,-3.6586,-3.6676,-3.6733,-3.6821,-3.6942,-3.6966,-3.6991,-3.6998,-3.7003,-3.7013,-3.7081,-3.7093,-3.6962,-3.6962,-3.6962,0,0,-3.5845,-3.5923,-3.5973,-3.6109,-3.6175,-3.6262,-3.6257,-3.6349,-3.6414,-3.6448,-3.6562,-3.6617,-3.6712,-3.6831,-3.6886,-3.6877,-3.7055,-3.7011,-3.7014,-3.7021,-3.7089,-3.7101,-3.7112,-3.6966,-3.6965,-3.6965,0,0,-3.5924,-3.5992,-3.608,-3.6147,-3.6247,-3.6298,-3.6319,-3.6425,-3.6463,-3.6578,-3.6606,-3.6684,-3.6837,-3.6904,-3.6958,-3.7065,-3.7081,-3.7092,-3.7126,-3.7192,-3.7202,-3.7211,-3.7249,-3.7262,-3.7101,-3.7101,-3.7101,0,-3.5935,-3.6068,-3.6123,-3.6215,-3.6274,-3.631,-3.6401,-3.6462,-3.6586,-3.6626,-3.6614,-3.6808,-3.6875,-3.701,-3.7036,-3.7079,-3.7105,-3.7079,-3.7196,-3.7206,-3.7216,-3.7253,-3.7267,-3.7102,-3.7102,-3.7102,-3.7102,0,-3.6076,-3.6168,-3.6227,-3.6346,-3.6413,-3.6503,-3.6573,-3.6633,-3.6661,-3.6714,-3.6831,-3.6913,-3.7018,-3.7053,-3.7081,-3.7193,-3.7184,-3.7184,-3.7162,-3.7228,-3.7264,-3.7278,-3.7103,-3.7103,-3.7103,-3.7102,0,0,-3.6143,-3.6293,-3.6314,-3.6369,-3.6483,-3.6555,-3.6648,-3.6752,-3.6802,-3.6887,-3.6966,-3.7096,-3.7097,-3.7158,-3.7195,-3.7252,-3.7332,-3.7245,-3.7248,-3.7258,-3.746,-3.7459,-3.7474,-3.7344,-3.7347,-3.7349,-3.7452,0,-3.6235,-3.6402,-3.6455,-3.6594,-3.668,-3.6716,-3.6797,-3.6876,-3.6928,-3.7008,-3.7066,-3.7157,-3.7151,-3.7188,-3.7247,-3.7309,-3.7373,-3.7303,-3.7417,-3.7421,-3.7391,-3.7493,-3.7492,-3.7585,-3.7466,-3.7468,-3.747,0,-3.6364,-3.6452,-3.6599,-3.6704,-3.6742,-3.6813,-3.6914,-3.699,-3.7081,-3.7115,-3.7184,-3.7217,-3.7315,-3.7288,-3.7424,-3.7376,-3.7426,-3.7464,-3.7469,-3.7481,-3.7448,-3.7507,-3.7616,-3.763,-3.7493,-3.7491,-3.7489,0,-3.6398,-3.6553,-3.6661,-3.6707,-3.6832,-3.6882,-3.6936,-3.7025,-3.7084,-3.7172,-3.7211,-3.7309,-3.7362,-3.7437,-3.7495,-3.747,-3.7626,-3.7604,-3.7657,-3.7655,-3.7687,-3.7684,-3.7805,-3.772,-3.772,-3.772,-3.7719,0,-3.6495,-3.6583,-3.6678,-3.6745,-3.6846,-3.6907,-3.7005,-3.7062,-3.714,-3.7218,-3.7256,-3.7329,-3.7402,-3.7484,-3.753,-3.7636,-3.766,-3.769,-3.7701,-3.7686,-3.7682,-3.7719,-3.7713,-3.7724,-3.7723,-3.7722,-3.7721,0,-3.6548,-3.6616,-3.6736,-3.6845,-3.6875,-3.6944,-3.7038,-3.7104,-3.7158,-3.7257,-3.7284,-3.7369,-3.7468,-3.7533,-3.7659,-3.7691,-3.7806,-3.7816,-3.7775,-3.778,-3.7829,-3.7823,-3.7977,-3.8,-3.7901,-3.7902,-3.7902,0,-3.6605,-3.6674,-3.6791,-3.6847,-3.6901,-3.699,-3.7052,-3.7116,-3.7178,-3.7287,-3.734,-3.7442,-3.7527,-3.7683,-3.7756,-3.7853,-3.7865,-3.7913,-3.788,-3.7863,-3.7865,-3.786,-3.7867,-3.7917,-3.7918,-3.7918,-3.7919,0,-3.6698,-3.6729,-3.6816,-3.6915,-3.6988,-3.7069,-3.715,-3.7194,-3.7272,-3.734,-3.7442,-3.7508,-3.7638,-3.7738,-3.7843,-3.7898,-3.7922,-3.7929,-3.7946,-3.7931,-3.7905,-3.7919,-3.7789,-3.7925,-3.7924,-3.7924,-3.7923,-3.7923,-3.6755,-3.6818,-3.6911,-3.7007,-3.7076,-3.7151,-3.7219,-3.7283,-3.7369,-3.748,-3.7513,-3.762,-3.771,-3.7852,-3.791,-3.7994,-3.7989,-3.8014,-3.8021,-3.8025,-3.8025,-3.7892,-3.8014,-3.8014,-3.8014,-3.8014,-3.8013,0,-3.6849,-3.6911,-3.7,-3.7113,-3.7189,-3.7206,-3.7298,-3.736,-3.7453,-3.7536,-3.7619,-3.7737,-3.7835,-3.7916,-3.8018,-3.807,-3.8083,-3.8094,-3.809,-3.8103,-3.8024,-3.7999,-3.8082,-3.8081,-3.8081,-3.8081,-3.8081,-3.8081,-3.6907,-3.7016,-3.7058,-3.7201,-3.7263,-3.7368,-3.7419,-3.7489,-3.7555,-3.7686,-3.7768,-3.7821,-3.7903,-3.8011,-3.8102,-3.8124,-3.8159,-3.8168,-3.8191,-3.8116,-3.8108,-3.8101,-3.8077,-3.8175,-3.8175,-3.8263,-3.8263,-3.8264]}]]